Flag for USA

Past Weather in Woodbridge Street Historic District, Massachusetts, USA — Yesterday and Last 2 Weeks

Now
72 °F

Fog.


Feels Like: 67 °F
Forecast: 71 / 61 °F
Wind: 7 mph from South

Location: Chicopee Falls / Westover Air Force Base

Current Time: Jun 20, 2019 at 5:38:26 pm

Latest Report: Jun 20, 2019 at 4:56 pm


Visibility: 4 mi

Pressure: 29.51 "Hg

Humidity: 97%

Dew Point: 71 °F

Location of Woodbridge Street Historic DistrictLocation

Past Weather in Woodbridge Street Historic District — Graph

°F

Woodbridge Street Historic District Temperature Yesterday

Maximum temperature yesterday: 79 °F (at 2:56 pm)
Minimum temperature yesterday: 64 °F (at 1:19 am)
Average temperature yesterday: 70 °F

High & Low Weather Summary for the Past Weeks

 TemperatureHumidityPressure
High83 °F (Jun 7, 2:56 pm)100% (Jun 6, 5:31 am)30.37 "Hg (Jun 6, 5:31 am)
Low47 °F (Jun 12, 4:56 am)19% (Jun 8, 4:56 pm)29.53 "Hg (Jun 20, 2:56 pm)
Average66 °F75%29.93 "Hg
* Reported Jun 5 3:56 pm — Jun 20 3:56 pm, Woodbridge Street Historic District. Weather by CustomWeather, © 2019

Note: Actual official high and low records may vary slightly from our data, if they occured in-between our weather recording intervals... More about our weather records

Advertising

Woodbridge Street Historic District Weather History for the Previous 24 Hours

Scroll right to see more
 ConditionsComfort  
Time TempWeatherWind HumidityBarometerVisibility
3:56 pm
Thu, Jun 20
72 °FFog.13 mph96%29.53 "Hg3 mi
3:20 pm73 °FFog.10 mph94%29.53 "Hg3 mi
2:56 pm72 °FLight rain. Fog.10 mph100%29.53 "Hg3 mi
2:19 pm72 °FLight rain. Fog.7 mph100%29.55 "Hg2 mi
2:11 pm72 °FLight rain. Fog.6 mph100%29.56 "Hg2 mi
1:56 pm71 °FLight rain. Fog.6 mph98%29.56 "Hg4 mi
1:42 pm72 °FLight rain. Fog.8 mph94%29.56 "Hg4 mi
1:02 pm70 °FFog.No wind100%29.59 "Hg4 mi
12:56 pm70 °FLight rain. Fog.No wind98%29.60 "Hg4 mi
12:36 pm70 °FLight rain. Fog.5 mph100%29.60 "Hg2 mi
11:56 am69 °FFog.6 mph98%29.62 "Hg3 mi
11:11 am68 °FLight rain. Fog.No wind100%29.64 "Hg1 mi
11:03 am68 °FLight rain. Fog.3 mph100%29.64 "Hg1 mi
10:25 am68 °FFog.3 mph94%29.65 "Hg5 mi
10:13 am68 °FFog.3 mph94%29.65 "Hg5 mi
9:56 am68 °FLight rain. Fog.No wind96%29.66 "Hg4 mi
9:26 am68 °FRain. Fog.3 mph94%29.67 "Hg3 mi
9:23 am68 °FLight rain. Fog.3 mph94%29.67 "Hg5 mi
8:56 am66 °FLow clouds.No wind98%29.67 "Hg10 mi
8:30 am66 °FLow clouds.5 mph100%29.68 "Hg10 mi
7:56 am66 °FLow clouds.5 mph100%29.69 "Hg10 mi
6:56 am65 °FFog.No wind100%29.71 "Hg6 mi
5:56 am65 °FFog.No wind100%29.71 "Hg5 mi
4:56 am65 °FFog.No wind100%29.71 "Hg6 mi
3:56 am65 °FRain. Fog.3 mph98%29.72 "Hg3 mi
2:56 am66 °FMostly cloudy.3 mph94%29.74 "Hg10 mi
1:56 am66 °FMostly cloudy.No wind95%29.75 "Hg10 mi
12:56 am66 °FMostly cloudy.No wind93%29.76 "Hg10 mi
11:56 pm
Wed, Jun 19
67 °FMostly cloudy.5 mph96%29.78 "Hg9 mi
11:12 pm66 °FMostly cloudy.No wind100%29.79 "Hg9 mi
10:56 pm67 °FLight rain. Fog.3 mph92%29.80 "Hg4 mi
10:43 pm68 °FLight rain. Mostly cloudy.9 mph88%29.79 "Hg8 mi
9:56 pm68 °FMostly cloudy.6 mph86%29.80 "Hg10 mi
8:56 pm69 °FPartly cloudy.9 mph82%29.80 "Hg10 mi
7:56 pm72 °FPartly sunny.8 mph76%29.79 "Hg10 mi
6:56 pm74 °FPartly sunny.12 mph71%29.79 "Hg10 mi
5:56 pm76 °FBroken clouds.9 mph66%29.79 "Hg10 mi
Weather by CustomWeather, © 2019

See weather overview